Airport Information

KMFR - Rogue Valley Intl Medford Airport

KMFR 180453Z AUTO 13004KT 10SM CLR 15/M01 A3009 RMK AO2 SLP187 T01501006


  • General Information

  • Coordinates: N 42°22'27"/ W 122°52'24"
  • Location: N/A
  • Surveyed Elevation: 1335 MSL

Operations

Flow Name Active Runways Conditions

Green background denotes normal operations.


Common Frequencies

Callsign Frequency Position Name

More at the Document Center


Charts